This is the latest recevied weather packets stored in our database for station/object KD0TGF-W. If no packets are shown the sender has not sent any weather packets the latest 10 day(s).
| Time | Temp. | Humidity | Pressure | Rain* | Wind** | Luminosity | Snow |
|---|---|---|---|---|---|---|---|
| 1777228984 | 18.89° C | 57% | 1012.5 hPa | 0 mm | - | - | - |
| 1777228923 | 19.44° C | 57% | 1012.5 hPa | 0 mm | - | - | - |
| 1777228864 | 19.44° C | 59% | 1012.5 hPa | 0 mm | - | - | - |
| 1777228804 | 18.89° C | 58% | 1012.5 hPa | 0 mm | - | - | - |
| 1777228744 | 18.89° C | 57% | 1012.5 hPa | 0 mm | - | - | - |
| 1777228683 | 19.44° C | 59% | 1012.6 hPa | 0 mm | - | - | - |
| 1777228623 | 18.89° C | 60% | 1012.7 hPa | 0 mm | - | - | - |
| 1777228564 | 18.89° C | 59% | 1012.6 hPa | 0 mm | - | - | - |
| 1777228503 | 18.89° C | 59% | 1012.7 hPa | 0 mm | - | - | - |
| 1777228443 | 18.89° C | 59% | 1012.6 hPa | 0 mm | - | - | - |
| 1777228383 | 18.33° C | 59% | 1012.7 hPa | 0 mm | - | - | - |
| 1777228324 | 18.33° C | 60% | 1012.7 hPa | 0 mm | - | - | - |
| 1777228263 | 18.33° C | 60% | 1012.7 hPa | 0 mm | - | - | - |
| 1777228203 | 18.33° C | 59% | 1012.7 hPa | 0 mm | - | - | - |
| 1777228143 | 18.33° C | 59% | 1012.7 hPa | 0 mm | - | - | - |
| 1777228084 | 18.33° C | 61% | 1012.8 hPa | 0 mm | - | - | - |
| 1777228024 | 18.33° C | 58% | 1012.9 hPa | 0 mm | - | - | - |
| 1777227963 | 18.89° C | 57% | 1012.8 hPa | 0 mm | - | - | - |
| 1777227903 | 18.89° C | 57% | 1012.8 hPa | 0 mm | - | - | - |
| 1777227844 | 18.89° C | 58% | 1012.8 hPa | 0 mm | - | - | - |
| 1777227784 | 18.89° C | 58% | 1012.8 hPa | 0 mm | - | - | - |
| 1777227724 | 18.89° C | 60% | 1012.7 hPa | 0 mm | - | - | - |
| 1777227663 | 18.89° C | 58% | 1012.9 hPa | 0 mm | - | - | - |
| 1777227603 | 18.89° C | 57% | 1012.8 hPa | 0 mm | - | - | - |
| 1777227544 | 18.89° C | 58% | 1012.8 hPa | 0 mm | - | - | - |
* Rain latest hour (hover to see other rain measurements)
** Current wind speed in m/s (hover to see current wind gust speed)